This is the latest recevied weather packets stored in our database for station/object NK7I. If no packets are shown the sender has not sent any weather packets the latest 10 day(s).
| Time | Temp. | Humidity | Pressure | Rain* | Wind** | Luminosity | Snow |
|---|---|---|---|---|---|---|---|
| 1778022383 | 22.78° C | 33% | 1010.8 hPa | 0 mm | - | 842 W/m² | - |
| 1778022082 | 22.78° C | 32% | 1010.8 hPa | 0 mm | - | 856 W/m² | - |
| 1778021782 | 22.22° C | 30% | 1010.9 hPa | 0 mm | - | 881 W/m² | - |
| 1778021483 | 22.22° C | 27% | 1010.9 hPa | 0 mm | - | 895 W/m² | - |
| 1778021183 | 22.22° C | 35% | 1010.9 hPa | 0 mm | - | 912 W/m² | - |
| 1778020882 | 22.22° C | 29% | 1010.9 hPa | 0 mm | - | 932 W/m² | - |
| 1778020582 | 21.67° C | 33% | 1011 hPa | 0 mm | - | 949 W/m² | - |
| 1778020282 | 22.22° C | 34% | 1011.1 hPa | 0 mm | - | 967 W/m² | - |
| 1778019982 | 22.22° C | 34% | 1011.1 hPa | 0 mm | - | 984 W/m² | - |
| 1778019683 | 22.22° C | 33% | 1011.1 hPa | 0 mm | - | 998 W/m² | - |
| 1778019382 | 22.22° C | 30% | 1011.2 hPa | 0 mm | - | 1016 W/m² | - |
| 1778019083 | 22.22° C | 30% | 1011.3 hPa | 0 mm | - | 1034 W/m² | - |
| 1778018782 | 21.67° C | 38% | 1011.3 hPa | 0 mm | - | 1048 W/m² | - |
| 1778018483 | 21.67° C | 32% | 1011.4 hPa | 0 mm | - | 1067 W/m² | - |
| 1778018182 | 21.67° C | 36% | 1011.4 hPa | 0 mm | - | 1083 W/m² | - |
| 1778017883 | 21.11° C | 28% | 1011.4 hPa | 0 mm | - | 1099 W/m² | - |
| 1778017582 | 21.11° C | 33% | 1011.6 hPa | 0 mm | - | 1111 W/m² | - |
| 1778017282 | 21.11° C | 34% | 1011.6 hPa | 0 mm | - | 1121 W/m² | - |
| 1778016982 | 21.11° C | 29% | 1011.6 hPa | 0 mm | - | 1132 W/m² | - |
| 1778016682 | 21.11° C | 29% | 1011.7 hPa | 0 mm | - | 1146 W/m² | - |
| 1778016383 | 21.11° C | 31% | 1011.8 hPa | 0 mm | - | 1160 W/m² | - |
| 1778016082 | 21.11° C | 29% | 1011.9 hPa | 0 mm | - | 1172 W/m² | - |
| 1778015782 | 21.11° C | 34% | 1012 hPa | 0 mm | - | 1179 W/m² | - |
| 1778015483 | 21.11° C | 31% | 1012.1 hPa | 0 mm | - | 1188 W/m² | - |
| 1778015183 | 21.11° C | 31% | 1012.3 hPa | 0 mm | - | 1201 W/m² | - |
* Rain latest hour (hover to see other rain measurements)
** Current wind speed in m/s (hover to see current wind gust speed)